Regional Weather Roundup
Issued by NWS Charleston, SC

Current Version | Previous Version | Graphics & Text | Print | Product List | Glossary On
Versions: 1 2 3 4 5 6 7 8 9 10 11 12 13 14 15 16 17 18 19 20 21 22 23 24 25 26 27 28 29 30 31 32 33 34 35 36 37 38 39 40 41 42 43 44 45 46 47 48 49 50
510 ASUS42 KCHS 080312 RWRCHS REGIONAL WEATHER ROUNDUP NATIONAL WEATHER SERVICE CHARLESTON SC 1000 PM EST SUN FEB 07 2016 NOTE: "FAIR" INDICATES FEW OR NO CLOUDS BELOW 12,000 FEET WITH NO SIGNIFICANT WEATHER AND/OR OBSTRUCTIONS TO VISIBILITY. NOT ALL STATIONS ARE QUALITY CONTROLLED BY THE NATIONAL WEATHER SERVICE. USE DATA WITH CAUTION...ESPECIALLY DEWPOINT OBSERVATIONS. NOTICE: OBSERVATIONS FOR THE SAVANNAH-HILTON HEAD INTERNATIONAL AIRPORT /KSAV/ HAVE BEEN TEMPORARILY REMOVED DUE TO AN ERRONEOUS TEMPERATURE SENSOR. THE OBSERVATION WILL BE REINTRODUCED ONCE REPAIRS ARE COMPLETE. SCZ027-030-031-034>040-042>050-080400- ...SOUTHEAST SOUTH CAROLINA... CITY SKY/WX TMP DP RH WIND PRES REMARKS N CHARLESTON PTCLDY 43 27 53 NW8 29.93R WATERFRONT PRK N/A 45 30 55 NW6 29.78R MOUNT PLEASANT FAIR 43 32 65 W9 29.92R JOHNS ISLAND FAIR 41 30 65 W6 29.94R PINOPOLIS N/A 46 36 66 NW12 29.83F MONCKS CORNER FAIR 39 25 56 CALM 29.93R SUMMERVILLE FAIR 43 30 61 NW5 29.95R BEAUFORT MCAS CLEAR 36 30 79 W5 29.97R WCI 32 BEAUFORT ARPT FAIR 41 32 70 NW6 29.96R HILTON HEAD IS CLEAR 37 36 93 CALM 29.98R WALTERBORO CLEAR 37 32 81 CALM 29.96S ALLENDALE FAIR 37 36 93 CALM 29.95S ...SOUTHERN MIDLANDS AND PEE DEE... CITY SKY/WX TMP DP RH WIND PRES REMARKS GEORGETOWN NOT AVBL KINGSTREE NOT AVBL ORANGEBURG CLEAR 38 33 82 CALM 29.95R BARNWELL FAIR 37 34 87 CALM 29.95F AIKEN FAIR 36 28 75 CALM 29.96F MANNING FAIR 41 27 56 NW3 29.93R COLUMBIA CLEAR 37 29 72 S3 29.94S SUMTER CLEAR 41 25 51 NW6 29.90F FLORENCE CLOUDY 43 25 49 NW9 29.90S MYRTLE BEACH CLEAR 43 27 52 NW16G22 29.85S N MYRTLE BEACH CLOUDY 42 28 57 NW9G22 29.80F $$ GAZ063-065-086>088-099>101-113>116-118-119-134>141-150-080400- ...SOUTHEAST GEORGIA... CITY SKY/WX TMP DP RH WIND PRES REMARKS SAVANNAH ARPT CLEAR 39 31 72 W5 29.99R WCI 36 HUNTER AAF CLEAR 38 32 78 W6 29.96R WCI 34 FORT STEWART CLEAR 42 31 65 W2 29.98R STATESBORO CLEAR 40 38 93 CALM 29.98R SYLVANIA CLEAR 39 34 84 CALM 29.97S CLAXTON FAIR 38 38 98 CALM 30.00R ...CSRA...CENTRAL AND FAR SOUTHEAST GEORGIA... CITY SKY/WX TMP DP RH WIND PRES REMARKS THOMSON CLEAR 39 33 76 W3 29.99S AUGUSTA-BUSH CLEAR 40 27 59 CALM 29.94F AUGUSTA-DANIEL CLEAR 48 24 39 CALM 29.94F SWAINSBORO FAIR 36 32 87 CALM 29.99S VIDALIA CLEAR 41 32 70 W3 29.99F EASTMAN FAIR 42 31 64 CALM 30.03R HAZLEHURST FAIR 43 36 76 SW3 30.00S ALMA CLEAR 42 30 62 CALM 30.02R WAYCROSS CLEAR 46 33 59 W3 30.04R JESUP FAIR 43 34 70 W3 30.02R BAXLEY FAIR 43 34 70 CALM 30.01S BRUNSWICK CLEAR 43 32 65 W5 30.03R SAINT SIMONS CLEAR 46 34 62 W7 30.02R $$ SCZ027-028-034-036>038-045-046-048>050-GAZ119-141-080400- ...LAKE AND SUPPLEMENTAL COASTAL OBSERVATIONS... STATION/POSITION TIME TEMP WIND PRES WAVE SWELL AIR SEA DIR/SP/G HT/PER HT/PER/DIR (UTC) (F) (DEG/KT/KT) (MB) (FT/S) (FT/S/D) WINYAH BAY NOT AVBL LAKE MURRAY 0200 44 CALM 1013.5S ACE BASIN NERRS NOT AVBL FORT PULASKI 0200 47 53 1014.8R SAPELO ISLAND 0200 49 270/ 5 1015.0R $$ ANZ835-935-AMZ111-154-330-350-352-354-370-450-454-472-080400- ...C-MAN AND BUOY OBSERVATIONS... STATION/POSITION TIME TEMP WIND PRES WAVE SWELL AIR SEA DIR/SP/G HT/PER HT/PER/DIR (UTC) (F) (DEG/KT/KT) (MB) (FT/S) (FT/S/D) BUOY 41004 0250 52 66 310/ 31/ 39 1010.3R 10/ 8 5/10 BUOY 41008 0250 53 55 290/ 14/ 17 1015.5R 4/13 3/ 40/13 FOLLY BEACH CMAN 0300 44 310/ 6/ 10 1013.6R CAPERS NEARSHORE 0208 47 300/ 17/ 21 1011.7F FRIPP NEARSHORE 0200 50 310/ 10/ 12 1013.7R STATION/POSITION TIME TEMP WIND PRES WAVE SWELL AIR SEA DIR/SP/G HT/PER HT/PER/DIR (UTC) (F) (DEG/KT/KT) (MB) (FT/S) (FT/S/D) 5E ST. MARYS GA 0221 56 N/A 4/13 2/ 80/13 FRYING PAN BUOY 0200 46 66 320/ 33/ 43 1005.9R BUOY 41025 0250 51 71 350/ 45/ 52 991.9R 18/11 11/ 90/11 CAPE LOOKOUT NC NOT AVBL BUOY 41002 0250 57 69 290/ 51/ 64 N/A 30/11 25/280/11 BUOY 41010 0220 62 74 1013.2R ST AUGUSTINE FL 0300 45 57 270/ 6/ 8 1018.4R $$

USA.gov is the U.S. government's official web portal to all federal, state and local government web resources and services.